COSMOS 1750

Satellite information

Favourite Embed

Satellite Type and Status

PAYLOADIN ORBIT

Key statistics

Satellite COSMOS 1750 at a glance.

Uptime

14274

Days in orbit

Revolutions

≈ 12.6

Per day

Orbit

LEO

Low Earth Orbit

Inclination

74.0

Latest

Satellite identification and parameters

Extended collection of information and parameters for COSMOS 1750.

Object identification

Identified? True

Debris? False

Object name: COSMOS 1750

International designator: 1986-042C

Object number (NORAD): 16760

Object ID (CCSDS): 16760

Country: COMMONWEALTH OF INDEPENDENT STATES (CIS)

Current information (Y/N): Y

RCS size: MEDIUM

Orbital parameters

Period: 114.635 minutes

Inclination: 74.0152 deg

SMA: 7816.972 km

Apoapsis: 1469.553 km

Periapsis: 1408.12 km

RAAN: 205.2374 deg

Eccentricy: 0.0039295

Argument of periapsis: 26.869 deg

Mean anomaly: 91.2273 deg

Mean motion: 12.56160025 rev/day

Mean motion (dot): -0.00000003 rev/day2

B* drag term: 0.000076489 1/REarth

Two-line elements (TLE)

Creation date: July 4, 2025, 6:39 p.m.

Reference frame: TEME

Reference center: EARTH

Epoch: July 4, 2025, 1:17 p.m. UTC

TLE line 0: 0 COSMOS 1750

TLE line 1: 1 16760U 86042C 25185.55400189 -.00000003 00000-0 76489-4 0 9995

TLE line 2: 2 16760 74.0152 205.2374 0039295 26.8690 91.2273 12.56160025791956

Live tracking on map

Real-time ground track for satellite COSMOS 1750.

In-orbit conjunctions

There are no conjunctions computed for COSMOS 1750, at the moment. Check back to stay up to date, as we update our databases every day.

Go to all conjunctions

Associated space launch

Military communications satellites

COSMOS 1750 was lifted into orbit during the mission ‘Kosmos-3M | Strela-1M 305-312’, on board a Kosmos-3M space rocket.

The launch took place on June 6, 1986, 3:57 a.m. from 132/1 (132L).

For more information about the launch, click the button.

Launch to space Kosmos-3M | Strela-1M 305-312
Kosmos-3M | Strela-1M 305-312

Agency: N/A

Status: Launch Successful

Launch date: June 6, 1986, 3:57 a.m. UTC

Rocket: Kosmos-3M

Launch pad: 132/1 (132L)

Location: Plesetsk Cosmodrome, Russian Federation

...

Latest news about this satellite

There are no fresh news available about this satellite. Check back as we update our databases every day.


Newsletter sign-up

Weekly statistics, charts and insights to help you stay on top of the space industry.